Grayling, MI

2:15 AM EDT on July 26, 2017 (GMT -0400)
Grayling

Weather History for KGOV - July, 2013

Change the Weather History Date:

Wednesday, July 31, 2013

  Actual Average (KHTL) Record (KHTL)
Temperature  
Mean Temperature 63 °F -  
Max Temperature 73 °F 78 °F 96 °F (1933)
Min Temperature 53 °F 55 °F 35 °F (1978)
Degree Days  
Heating Degree Days 2    
Growing Degree Days 13 (Base 50)    
Moisture  
Dew Point 60 °F    
Average Humidity 85    
Maximum Humidity 100    
Minimum Humidity 55    
Precipitation  
Precipitation 0.00 in - - ()
Sea Level Pressure  
Sea Level Pressure 30.04 in    
Wind  
Wind Speed 3 mph (SSW)    
Max Wind Speed 24 mph    
Max Gust Speed 38 mph    
Visibility 10 miles    
Events Rain    
Averages and records for this station are not official NWS values.
T = Trace of Precipitation, MM = Missing Value Source: NWS Daily Summary

Daily Weather History Graph

Daily Weather History Graph

Search for Another Location

Airport or City:

Trip Planner

Search our weather history database for the weather conditions in past years. The results will help you decide how hot, cold, wet, or windy it might be!

Date:

Astronomy

Jul. 31, 2013 Rise Set
Actual Time 6:24 AM EDT 9:05 PM EDT
Civil Twilight 5:50 AM EDT 9:38 PM EDT
Nautical Twilight 5:08 AM EDT 10:21 PM EDT
Astronomical Twilight 4:19 AM EDT 11:09 PM EDT
Moon 1:19 AM EDT (7/31) 4:21 PM EDT (7/31)
Length of Visible Light 15h 48m
Length of Day
14h 41m
Waning Crescent, 32% of the Moon is Illuminated
Jul 31
Waning Crescent
Aug 6
New
Aug 14
First Quarter
Aug 20
Full
Aug 28
Last Quarter

Hourly Weather History & Observations

Time (EDT) Temp. Dew Point Humidity Pressure Visibility Wind Dir Wind Speed Gust Speed Precip Events Conditions
12:14 AM 53.6 °F 53.2 °F 99% 30.14 in 10.0 mi North 3.5 mph - N/A   Clear
12:35 AM 55.2 °F 55.0 °F 99% 30.14 in 10.0 mi Calm Calm - N/A   Mostly Cloudy
12:55 AM 55.9 °F 55.6 °F 99% 30.14 in 10.0 mi Calm Calm - N/A   Overcast
1:15 AM 55.9 °F 55.4 °F 98% 30.14 in 10.0 mi Calm Calm - N/A   Overcast
1:35 AM 56.3 °F 55.4 °F 97% 30.13 in 10.0 mi Calm Calm - N/A   Overcast
1:55 AM 55.9 °F 55.4 °F 98% 30.13 in 10.0 mi Calm Calm - N/A   Overcast
2:15 AM 58.5 °F 57.2 °F 96% 30.13 in 10.0 mi Calm Calm - N/A   Overcast
2:55 AM 58.5 °F 57.4 °F 96% 30.12 in 10.0 mi Calm Calm - N/A   Mostly Cloudy
3:15 AM 58.5 °F 57.7 °F 97% 30.12 in 10.0 mi Calm Calm - N/A Rain Light Rain
3:35 AM 58.5 °F 57.7 °F 97% 30.12 in 10.0 mi Calm Calm - N/A   Light Drizzle
3:55 AM 58.5 °F 58.1 °F 99% 30.11 in 10.0 mi Calm Calm - N/A   Overcast
4:15 AM 58.5 °F 58.1 °F 99% 30.11 in 10.0 mi Calm Calm - N/A   Overcast
4:35 AM 58.5 °F 58.5 °F 100% 30.11 in 10.0 mi Calm Calm - N/A Rain Rain
4:55 AM 58.5 °F 58.5 °F 100% 30.10 in 7.0 mi Calm Calm - N/A Rain Light Rain
5:15 AM 58.5 °F 58.5 °F 100% 30.10 in 10.0 mi Calm Calm - N/A   Overcast
5:35 AM 58.5 °F 58.5 °F 100% 30.10 in 10.0 mi SSE 4.6 mph - N/A   Overcast
5:55 AM 58.5 °F 58.5 °F 100% 30.10 in 10.0 mi Calm Calm - N/A   Overcast
6:15 AM 58.5 °F 58.5 °F 100% 30.11 in 10.0 mi Calm Calm - N/A   Overcast
6:35 AM 58.5 °F 58.5 °F 100% 30.11 in 10.0 mi Calm Calm - N/A   Overcast
6:55 AM 58.5 °F 58.5 °F 100% 30.11 in 10.0 mi Calm Calm - N/A   Overcast
7:15 AM 59.0 °F 59.0 °F 100% 30.10 in 10.0 mi Calm Calm - N/A   Overcast
7:35 AM 59.9 °F 59.9 °F 100% 30.10 in 10.0 mi Calm Calm - N/A   Overcast
7:54 AM 60.6 °F 59.9 °F 97% 30.10 in 10.0 mi Calm Calm - N/A   Overcast
8:15 AM 61.0 °F 60.1 °F 97% 30.11 in 10.0 mi Calm Calm - N/A   Mostly Cloudy
8:35 AM 61.9 °F 60.1 °F 94% 30.11 in 10.0 mi Calm Calm - N/A   Mostly Cloudy
8:54 AM 63.5 °F 60.6 °F 90% 30.11 in 10.0 mi Calm Calm - N/A   Mostly Cloudy
9:15 AM 67.8 °F 60.4 °F 77% 30.10 in 10.0 mi SW 4.6 mph - N/A   Scattered Clouds
9:35 AM 67.1 °F 60.6 °F 80% 30.10 in 10.0 mi West 3.5 mph - N/A   Mostly Cloudy
9:54 AM 68.0 °F 60.8 °F 78% 30.09 in 10.0 mi Calm Calm - N/A   Overcast
10:15 AM 68.5 °F 59.5 °F 73% 30.08 in 10.0 mi South 3.5 mph - N/A   Overcast
10:35 AM 68.5 °F 59.0 °F 72% 30.08 in 10.0 mi Calm Calm - N/A   Mostly Cloudy
10:55 AM 70.5 °F 57.7 °F 64% 30.07 in 10.0 mi West 4.6 mph - N/A   Scattered Clouds
11:15 AM 73.0 °F 55.9 °F 55% 30.06 in 10.0 mi SSW 5.8 mph - N/A   Scattered Clouds
11:35 AM 73.6 °F 56.8 °F 56% 30.06 in 10.0 mi South 8.1 mph - N/A   Mostly Cloudy
11:55 AM 73.6 °F 57.7 °F 58% 30.06 in 10.0 mi SSW 6.9 mph - N/A   Mostly Cloudy
12:15 PM 72.7 °F 58.8 °F 62% 30.05 in 10.0 mi SSW 5.8 mph - N/A   Mostly Cloudy
12:34 PM 71.2 °F 58.3 °F 64% 30.05 in 10.0 mi SW 4.6 mph - N/A   Overcast
12:55 PM 73.6 °F 60.4 °F 63% 30.04 in 10.0 mi SSW 3.5 mph - N/A   Overcast
1:15 PM 73.6 °F 62.2 °F 68% 30.03 in 10.0 mi SW 6.9 mph - N/A   Overcast
1:34 PM 71.1 °F 60.8 °F 70% 30.03 in 10.0 mi SSW 5.8 mph - N/A   Mostly Cloudy
1:55 PM 68.5 °F 61.2 °F 77% 30.02 in 10.0 mi SSW 8.1 mph - N/A   Overcast
2:15 PM 68.5 °F 61.2 °F 77% 30.02 in 10.0 mi SW 6.9 mph - N/A   Overcast
2:34 PM 68.5 °F 61.7 °F 79% 30.01 in 10.0 mi SW 6.9 mph - N/A   Overcast
2:55 PM 68.5 °F 62.1 °F 80% 30.01 in 10.0 mi SSW 9.2 mph - N/A   Overcast
3:15 PM 68.5 °F 61.7 °F 79% 30.01 in 10.0 mi South 6.9 mph - N/A   Overcast
3:34 PM 68.5 °F 62.8 °F 82% 30.00 in 10.0 mi SW 4.6 mph - N/A   Overcast
3:55 PM 68.5 °F 62.4 °F 81% 29.99 in 10.0 mi SSW 9.2 mph - N/A   Overcast
4:15 PM 68.5 °F 61.7 °F 79% 29.98 in 10.0 mi SSW 6.9 mph - N/A   Overcast
4:34 PM 69.8 °F 62.1 °F 76% 29.97 in 10.0 mi SW 6.9 mph - N/A   Overcast
4:55 PM 73.6 °F 63.3 °F 70% 29.96 in 10.0 mi SSW 4.6 mph - N/A   Overcast
5:15 PM 73.6 °F 62.4 °F 68% 29.96 in 10.0 mi South 6.9 mph - N/A   Mostly Cloudy
5:35 PM 73.6 °F 62.2 °F 68% 29.96 in 10.0 mi SW 8.1 mph - N/A   Mostly Cloudy
5:55 PM 70.3 °F 62.2 °F 75% 29.96 in 10.0 mi SSW 4.6 mph - N/A   Overcast
6:15 PM 71.1 °F 63.0 °F 75% 29.96 in 10.0 mi South 6.9 mph - N/A   Mostly Cloudy
6:35 PM 73.6 °F 63.1 °F 70% 29.95 in 10.0 mi SW 4.6 mph - N/A   Overcast
6:55 PM 70.0 °F 61.9 °F 75% 29.96 in 10.0 mi SW 6.9 mph - N/A   Overcast
7:15 PM 68.9 °F 62.6 °F 80% 29.95 in 10.0 mi South 5.8 mph - N/A   Overcast
7:35 PM 69.1 °F 62.6 °F 80% 29.95 in 10.0 mi South 4.6 mph - N/A   Scattered Clouds
7:55 PM 68.5 °F 62.6 °F 81% 29.96 in 10.0 mi SW 5.8 mph - N/A   Clear
8:14 PM 68.5 °F 63.1 °F 83% 29.95 in 10.0 mi South 4.6 mph - N/A   Clear
8:35 PM 68.5 °F 63.5 °F 84% 29.94 in 10.0 mi SSW 4.6 mph - N/A   Clear
8:55 PM 68.5 °F 64.4 °F 87% 29.94 in 10.0 mi Calm Calm - N/A   Clear
9:14 PM 68.5 °F 64.9 °F 88% 29.94 in 10.0 mi SSW 3.5 mph - N/A   Clear
9:35 PM 68.2 °F 65.1 °F 90% 29.93 in 10.0 mi SSW 4.6 mph - N/A   Clear
9:55 PM 66.2 °F 63.5 °F 91% 29.93 in 10.0 mi SW 4.6 mph - N/A   Scattered Clouds
10:15 PM 66.2 °F 63.7 °F 92% 29.94 in 10.0 mi SW 5.8 mph - N/A   Scattered Clouds
10:35 PM 66.2 °F 63.5 °F 91% 29.93 in 10.0 mi SSW 4.6 mph - N/A   Mostly Cloudy
10:55 PM 67.5 °F 65.1 °F 92% 29.95 in 10.0 mi NW 24.2 mph 38.0 mph N/A   Overcast
11:14 PM 59.9 °F 57.2 °F 91% 29.96 in 10.0 mi NNE 16.1 mph 26.5 mph N/A   Overcast
11:35 PM 59.0 °F 56.5 °F 91% 29.95 in 10.0 mi NE 9.2 mph - N/A   Overcast
11:55 PM 58.5 °F 57.0 °F 95% 29.95 in 10.0 mi NE 5.8 mph - N/A Rain Light Rain